Time,TemperatureF,DewpointF,PressureIn,WindDirection,WindDirectionDegrees,WindSpeedMPH,WindSpeedGustMPH,Humidity,HourlyPrecipIn,Conditions,Clouds,dailyrainin,SolarRadiationWatts/m^2,SoftwareType,DateUTC
2013-06-05 00:02:00,67.0,63.0,-100.00,NNE,15,2.0,3.0,86,0.00,,,0.00,0.000000,,2013-06-05 04:02:00,
2013-06-05 00:23:00,67.0,62.0,-100.00,NE,37,2.0,4.0,84,0.00,,,0.00,0.000000,,2013-06-05 04:23:00,
2013-06-05 00:33:00,67.0,62.0,-100.00,NE,37,2.0,4.0,84,0.00,,,0.00,0.000000,,2013-06-05 04:33:00,
2013-06-05 00:42:00,67.0,62.0,-100.00,NE,37,2.0,4.0,84,0.00,,,0.00,0.000000,,2013-06-05 04:42:00,
2013-06-05 00:53:00,67.0,62.0,-100.00,NE,37,2.0,4.0,84,0.00,,,0.00,0.000000,,2013-06-05 04:53:00,
2013-06-05 01:02:00,67.0,62.0,-100.00,NE,37,2.0,4.0,84,0.00,,,0.00,0.000000,,2013-06-05 05:02:00,
2013-06-05 01:23:00,67.0,62.0,-100.00,NNE,25,1.0,3.0,84,0.00,,,0.00,0.000000,,2013-06-05 05:23:00,
2013-06-05 01:32:00,67.0,62.0,-100.00,NNE,25,1.0,3.0,84,0.00,,,0.00,0.000000,,2013-06-05 05:32:00,
2013-06-05 01:42:00,67.0,62.0,-100.00,NNE,25,1.0,3.0,84,0.00,,,0.00,0.000000,,2013-06-05 05:42:00,
2013-06-05 01:53:00,67.0,62.0,-100.00,NNE,25,1.0,3.0,84,0.00,,,0.00,0.000000,,2013-06-05 05:53:00,
2013-06-05 02:02:00,67.0,62.0,-100.00,NNE,25,1.0,3.0,84,0.00,,,0.00,0.000000,,2013-06-05 06:02:00,
2013-06-05 02:22:00,67.0,63.0,-100.00,NNE,31,2.0,4.0,86,0.00,,,0.00,0.000000,,2013-06-05 06:22:00,
2013-06-05 02:32:00,67.0,63.0,-100.00,NNE,31,2.0,4.0,86,0.00,,,0.00,0.000000,,2013-06-05 06:32:00,
2013-06-05 02:42:00,67.0,63.0,-100.00,NNE,31,2.0,4.0,86,0.00,,,0.00,0.000000,,2013-06-05 06:42:00,
2013-06-05 02:52:00,67.0,63.0,-100.00,NNE,31,2.0,4.0,86,0.00,,,0.00,0.000000,,2013-06-05 06:52:00,
2013-06-05 03:02:00,67.0,63.0,-100.00,NNE,31,2.0,4.0,86,0.00,,,0.00,0.000000,,2013-06-05 07:02:00,
2013-06-05 03:22:00,67.0,63.0,-100.00,NE,36,2.0,4.0,87,0.00,,,0.00,0.000000,,2013-06-05 07:22:00,
2013-06-05 03:32:00,67.0,63.0,-100.00,NE,36,2.0,4.0,87,0.00,,,0.00,0.000000,,2013-06-05 07:32:00,
2013-06-05 03:42:00,67.0,63.0,-100.00,NE,36,2.0,4.0,87,0.00,,,0.00,0.000000,,2013-06-05 07:42:00,
2013-06-05 03:52:00,67.0,63.0,-100.00,NE,36,2.0,4.0,87,0.00,,,0.00,0.000000,,2013-06-05 07:52:00,
2013-06-05 04:02:00,67.0,63.0,-100.00,NE,36,2.0,4.0,87,0.00,,,0.00,0.000000,,2013-06-05 08:02:00,
2013-06-05 04:22:00,67.0,62.0,-100.00,NE,41,2.0,4.0,84,0.00,,,0.00,0.000000,,2013-06-05 08:22:00,
2013-06-05 04:32:00,67.0,62.0,-100.00,NE,41,2.0,4.0,84,0.00,,,0.00,0.000000,,2013-06-05 08:32:00,
2013-06-05 04:42:00,67.0,62.0,-100.00,NE,41,2.0,4.0,84,0.00,,,0.00,0.000000,,2013-06-05 08:42:00,
2013-06-05 04:52:00,67.0,62.0,-100.00,NE,41,2.0,4.0,84,0.00,,,0.00,0.000000,,2013-06-05 08:52:00,
2013-06-05 05:02:00,67.0,62.0,-100.00,NE,41,2.0,4.0,84,0.00,,,0.00,0.000000,,2013-06-05 09:02:00,
2013-06-05 05:22:00,66.0,62.0,-100.00,NE,35,2.0,5.0,86,0.00,,,0.00,0.000000,,2013-06-05 09:22:00,
2013-06-05 05:33:00,66.0,62.0,-100.00,NE,35,2.0,5.0,86,0.00,,,0.00,0.000000,,2013-06-05 09:33:00,
2013-06-05 05:43:00,66.0,62.0,-100.00,NE,35,2.0,5.0,86,0.00,,,0.00,0.000000,,2013-06-05 09:43:00,
2013-06-05 05:53:00,66.0,62.0,-100.00,NE,35,2.0,5.0,86,0.00,,,0.00,0.000000,,2013-06-05 09:53:00,
2013-06-05 06:03:00,66.0,62.0,-100.00,NE,35,2.0,5.0,86,0.00,,,0.00,0.000000,,2013-06-05 10:03:00,
2013-06-05 06:23:00,67.0,62.0,-100.00,NNE,31,2.0,3.0,83,0.00,,,0.00,0.000000,,2013-06-05 10:23:00,
2013-06-05 06:33:00,67.0,62.0,-100.00,NNE,31,2.0,3.0,83,0.00,,,0.00,0.000000,,2013-06-05 10:33:00,
2013-06-05 06:43:00,67.0,62.0,-100.00,NNE,31,2.0,3.0,83,0.00,,,0.00,0.000000,,2013-06-05 10:43:00,
2013-06-05 06:53:00,67.0,62.0,-100.00,NNE,31,2.0,3.0,83,0.00,,,0.00,0.000000,,2013-06-05 10:53:00,
2013-06-05 07:02:00,67.0,62.0,-100.00,NNE,31,2.0,3.0,83,0.00,,,0.00,0.000000,,2013-06-05 11:02:00,
2013-06-05 07:22:00,66.0,61.0,-100.00,NNE,27,1.0,4.0,85,0.01,,,0.01,5.000000,,2013-06-05 11:22:00,
2013-06-05 07:33:00,66.0,61.0,-100.00,NNE,27,1.0,4.0,85,0.01,,,0.01,5.000000,,2013-06-05 11:33:00,
2013-06-05 07:42:00,66.0,61.0,-100.00,NNE,27,1.0,4.0,85,0.01,,,0.01,5.000000,,2013-06-05 11:42:00,
2013-06-05 07:52:00,66.0,61.0,-100.00,NNE,27,1.0,4.0,85,0.01,,,0.01,5.000000,,2013-06-05 11:52:00,
2013-06-05 08:02:00,66.0,61.0,-100.00,NNE,27,1.0,4.0,85,0.01,,,0.01,5.000000,,2013-06-05 12:02:00,
2013-06-05 08:22:00,65.0,63.0,-100.00,NE,40,1.0,3.0,92,0.00,,,0.01,15.000000,,2013-06-05 12:22:00,
2013-06-05 08:32:00,65.0,63.0,-100.00,NE,40,1.0,3.0,92,0.00,,,0.01,15.000000,,2013-06-05 12:32:00,
2013-06-05 08:44:00,65.0,63.0,-100.00,NE,40,1.0,3.0,92,0.00,,,0.01,15.000000,,2013-06-05 12:44:00,
2013-06-05 08:52:00,65.0,63.0,-100.00,NE,40,1.0,3.0,92,0.00,,,0.01,15.000000,,2013-06-05 12:52:00,
2013-06-05 09:02:00,65.0,63.0,-100.00,NE,40,1.0,3.0,92,0.00,,,0.01,15.000000,,2013-06-05 13:02:00,
2013-06-05 09:22:00,66.0,64.0,-100.00,NNE,31,2.0,5.0,94,0.00,,,0.01,49.000000,,2013-06-05 13:22:00,
2013-06-05 09:33:00,66.0,64.0,-100.00,NNE,31,2.0,5.0,94,0.00,,,0.01,49.000000,,2013-06-05 13:33:00,
2013-06-05 09:42:00,66.0,64.0,-100.00,NNE,31,2.0,5.0,94,0.00,,,0.01,49.000000,,2013-06-05 13:42:00,
2013-06-05 09:53:00,66.0,64.0,-100.00,NNE,31,2.0,5.0,94,0.00,,,0.01,49.000000,,2013-06-05 13:53:00,
2013-06-05 10:02:00,66.0,64.0,-100.00,NNE,31,2.0,5.0,94,0.00,,,0.01,49.000000,,2013-06-05 14:02:00,
2013-06-05 10:22:00,67.0,65.0,-100.00,NNE,20,2.0,4.0,94,0.00,,,0.01,100.000000,,2013-06-05 14:22:00,
2013-06-05 10:32:00,67.0,65.0,-100.00,NNE,20,2.0,4.0,94,0.00,,,0.01,100.000000,,2013-06-05 14:32:00,
2013-06-05 10:42:00,67.0,65.0,-100.00,NNE,20,2.0,4.0,94,0.00,,,0.01,100.000000,,2013-06-05 14:42:00,
2013-06-05 10:52:00,67.0,65.0,-100.00,NNE,20,2.0,4.0,94,0.00,,,0.01,100.000000,,2013-06-05 14:52:00,
2013-06-05 11:02:00,67.0,65.0,-100.00,NNE,20,2.0,4.0,94,0.00,,,0.01,100.000000,,2013-06-05 15:02:00,
2013-06-05 11:23:00,67.0,65.0,-100.00,ENE,65,2.0,6.0,93,0.00,,,0.01,119.000000,,2013-06-05 15:23:00,
2013-06-05 11:33:00,67.0,65.0,-100.00,ENE,65,2.0,6.0,93,0.00,,,0.01,119.000000,,2013-06-05 15:33:00,
2013-06-05 11:43:00,67.0,65.0,-100.00,ENE,65,2.0,6.0,93,0.00,,,0.01,119.000000,,2013-06-05 15:43:00,
2013-06-05 11:53:00,67.0,65.0,-100.00,ENE,65,2.0,6.0,93,0.00,,,0.01,119.000000,,2013-06-05 15:53:00,
2013-06-05 12:03:00,67.0,65.0,-100.00,ENE,65,2.0,6.0,93,0.00,,,0.01,119.000000,,2013-06-05 16:03:00,
2013-06-05 12:23:00,67.0,64.0,-100.00,East,88,3.0,6.0,91,0.00,,,0.01,147.000000,,2013-06-05 16:23:00,
2013-06-05 12:32:00,67.0,64.0,-100.00,East,88,3.0,6.0,91,0.00,,,0.01,147.000000,,2013-06-05 16:32:00,
2013-06-05 12:42:00,67.0,64.0,-100.00,East,88,3.0,6.0,91,0.00,,,0.01,147.000000,,2013-06-05 16:42:00,
2013-06-05 12:54:00,67.0,64.0,-100.00,East,88,3.0,6.0,91,0.00,,,0.01,147.000000,,2013-06-05 16:54:00,
2013-06-05 13:02:00,67.0,64.0,-100.00,East,88,3.0,6.0,91,0.00,,,0.01,147.000000,,2013-06-05 17:02:00,
2013-06-05 13:22:00,69.0,66.0,-100.00,NE,41,3.0,6.0,90,0.00,,,0.01,178.000000,,2013-06-05 17:22:00,
2013-06-05 13:33:00,69.0,66.0,-100.00,NE,41,3.0,6.0,90,0.00,,,0.01,178.000000,,2013-06-05 17:33:00,
2013-06-05 13:43:00,69.0,66.0,-100.00,NE,41,3.0,6.0,90,0.00,,,0.01,178.000000,,2013-06-05 17:43:00,
2013-06-05 13:52:00,69.0,66.0,-100.00,NE,41,3.0,6.0,90,0.00,,,0.01,178.000000,,2013-06-05 17:52:00,
2013-06-05 14:02:00,69.0,66.0,-100.00,NE,41,3.0,6.0,90,0.00,,,0.01,178.000000,,2013-06-05 18:02:00,
2013-06-05 14:23:00,70.0,64.0,-100.00,ENE,74,2.0,6.0,82,0.00,,,0.01,299.000000,,2013-06-05 18:23:00,
2013-06-05 14:32:00,70.0,64.0,-100.00,ENE,74,2.0,6.0,82,0.00,,,0.01,299.000000,,2013-06-05 18:32:00,
2013-06-05 14:42:00,70.0,64.0,-100.00,ENE,74,2.0,6.0,82,0.00,,,0.01,299.000000,,2013-06-05 18:42:00,
2013-06-05 14:52:00,70.0,64.0,-100.00,ENE,74,2.0,6.0,82,0.00,,,0.01,299.000000,,2013-06-05 18:52:00,
2013-06-05 15:03:00,70.0,64.0,-100.00,ENE,74,2.0,6.0,82,0.00,,,0.01,299.000000,,2013-06-05 19:03:00,
2013-06-05 15:23:00,70.0,64.0,-100.00,East,93,3.0,6.0,82,0.00,,,0.01,280.000000,,2013-06-05 19:23:00,
2013-06-05 15:32:00,70.0,64.0,-100.00,East,93,3.0,6.0,82,0.00,,,0.01,280.000000,,2013-06-05 19:32:00,
2013-06-05 15:42:00,70.0,64.0,-100.00,East,93,3.0,6.0,82,0.00,,,0.01,280.000000,,2013-06-05 19:42:00,
2013-06-05 15:53:00,70.0,64.0,-100.00,East,93,3.0,6.0,82,0.00,,,0.01,280.000000,,2013-06-05 19:53:00,
2013-06-05 16:03:00,70.0,64.0,-100.00,East,93,3.0,6.0,82,0.00,,,0.01,280.000000,,2013-06-05 20:03:00,
2013-06-05 16:23:00,71.0,64.0,-100.00,NE,44,2.0,6.0,79,0.00,,,0.01,405.000000,,2013-06-05 20:23:00,
2013-06-05 16:32:00,71.0,64.0,-100.00,NE,44,2.0,6.0,79,0.00,,,0.01,405.000000,,2013-06-05 20:32:00,
2013-06-05 16:42:00,71.0,64.0,-100.00,NE,44,2.0,6.0,79,0.00,,,0.01,405.000000,,2013-06-05 20:42:00,
2013-06-05 16:52:00,71.0,64.0,-100.00,NE,44,2.0,6.0,79,0.00,,,0.01,405.000000,,2013-06-05 20:52:00,
2013-06-05 17:02:00,71.0,64.0,-100.00,NE,44,2.0,6.0,79,0.00,,,0.01,405.000000,,2013-06-05 21:02:00,
2013-06-05 17:23:00,74.0,67.0,-100.00,ENE,65,2.0,6.0,78,0.00,,,0.01,426.000000,,2013-06-05 21:23:00,
2013-06-05 17:33:00,74.0,67.0,-100.00,ENE,65,2.0,6.0,78,0.00,,,0.01,426.000000,,2013-06-05 21:33:00,
2013-06-05 17:43:00,74.0,67.0,-100.00,ENE,65,2.0,6.0,78,0.00,,,0.01,426.000000,,2013-06-05 21:43:00,
2013-06-05 17:53:00,74.0,67.0,-100.00,ENE,65,2.0,6.0,78,0.00,,,0.01,426.000000,,2013-06-05 21:53:00,
2013-06-05 18:02:00,74.0,67.0,-100.00,ENE,65,2.0,6.0,78,0.00,,,0.01,426.000000,,2013-06-05 22:02:00,
2013-06-05 18:22:00,72.0,65.0,-100.00,NE,54,2.0,6.0,79,0.00,,,0.01,441.000000,,2013-06-05 22:22:00,
2013-06-05 18:33:00,72.0,65.0,-100.00,NE,54,2.0,6.0,79,0.00,,,0.01,441.000000,,2013-06-05 22:33:00,
2013-06-05 18:43:00,72.0,65.0,-100.00,NE,54,2.0,6.0,79,0.00,,,0.01,441.000000,,2013-06-05 22:43:00,
2013-06-05 18:53:00,72.0,65.0,-100.00,NE,54,2.0,6.0,79,0.00,,,0.01,441.000000,,2013-06-05 22:53:00,
2013-06-05 19:02:00,72.0,65.0,-100.00,NE,54,2.0,6.0,79,0.00,,,0.01,441.000000,,2013-06-05 23:02:00,
2013-06-05 19:22:00,71.0,65.0,-100.00,NE,54,2.0,5.0,80,0.00,,,0.01,180.000000,,2013-06-05 23:22:00,
2013-06-05 19:32:00,71.0,65.0,-100.00,NE,54,2.0,5.0,80,0.00,,,0.01,180.000000,,2013-06-05 23:32:00,
2013-06-05 19:42:00,71.0,65.0,-100.00,NE,54,2.0,5.0,80,0.00,,,0.01,180.000000,,2013-06-05 23:42:00,
2013-06-05 19:53:00,71.0,65.0,-100.00,NE,54,2.0,5.0,80,0.00,,,0.01,180.000000,,2013-06-05 23:53:00,
2013-06-05 20:02:00,71.0,65.0,-100.00,NE,54,2.0,5.0,80,0.00,,,0.01,180.000000,,2013-06-06 00:02:00,
2013-06-05 20:22:00,70.0,65.0,-100.00,NNE,32,3.0,5.0,85,0.00,,,0.01,36.000000,,2013-06-06 00:22:00,
2013-06-05 20:32:00,70.0,65.0,-100.00,NNE,32,3.0,5.0,85,0.00,,,0.01,36.000000,,2013-06-06 00:32:00,
2013-06-05 20:43:00,70.0,65.0,-100.00,NNE,32,3.0,5.0,85,0.00,,,0.01,36.000000,,2013-06-06 00:43:00,
2013-06-05 20:52:00,70.0,65.0,-100.00,NNE,32,3.0,5.0,85,0.00,,,0.01,36.000000,,2013-06-06 00:52:00,
2013-06-05 21:02:00,70.0,65.0,-100.00,NNE,32,3.0,5.0,85,0.00,,,0.01,36.000000,,2013-06-06 01:02:00,
2013-06-05 21:22:00,69.0,65.0,-100.00,NE,40,2.0,5.0,88,0.00,,,0.01,7.000000,,2013-06-06 01:22:00,
2013-06-05 21:32:00,69.0,65.0,-100.00,NE,40,2.0,5.0,88,0.00,,,0.01,7.000000,,2013-06-06 01:32:00,
2013-06-05 21:42:00,69.0,65.0,-100.00,NE,40,2.0,5.0,88,0.00,,,0.01,7.000000,,2013-06-06 01:42:00,
2013-06-05 21:53:00,69.0,65.0,-100.00,NE,40,2.0,5.0,88,0.00,,,0.01,7.000000,,2013-06-06 01:53:00,
2013-06-05 22:02:00,69.0,65.0,-100.00,NE,40,2.0,5.0,88,0.00,,,0.01,7.000000,,2013-06-06 02:02:00,
2013-06-05 22:22:00,68.0,64.0,-100.00,NE,44,2.0,4.0,88,0.00,,,0.01,0.000000,,2013-06-06 02:22:00,
2013-06-05 22:32:00,68.0,64.0,-100.00,NE,44,2.0,4.0,88,0.00,,,0.01,0.000000,,2013-06-06 02:32:00,
2013-06-05 22:42:00,68.0,64.0,-100.00,NE,44,2.0,4.0,88,0.00,,,0.01,0.000000,,2013-06-06 02:42:00,
2013-06-05 22:52:00,68.0,64.0,-100.00,NE,44,2.0,4.0,88,0.00,,,0.01,0.000000,,2013-06-06 02:52:00,
2013-06-05 23:02:00,68.0,64.0,-100.00,NE,44,2.0,4.0,88,0.00,,,0.01,0.000000,,2013-06-06 03:02:00,
2013-06-05 23:22:00,67.0,64.0,-100.00,ENE,59,2.0,4.0,91,0.00,,,0.01,0.000000,,2013-06-06 03:22:00,
2013-06-05 23:33:00,67.0,64.0,-100.00,ENE,59,2.0,4.0,91,0.00,,,0.01,0.000000,,2013-06-06 03:33:00,
2013-06-05 23:43:00,67.0,64.0,-100.00,ENE,59,2.0,4.0,91,0.00,,,0.01,0.000000,,2013-06-06 03:43:00,
2013-06-05 23:53:00,67.0,64.0,-100.00,ENE,59,2.0,4.0,91,0.00,,,0.01,0.000000,,2013-06-06 03:53:00,